User: anonymous   Login
Location: Dunedin
(45.8670°S, 170.5000°E)
Time: 20:06:09
(UTC+13:00)
Language:

Cosmos 2219 Rocket - Orbit

View from above orbital plane
View from above orbital plane
View from above satellite
View from above satellite

Ground track
Ground track

The orbit data is extracted from the following two-line orbital elements,

1 22220U 92076B   19292.00379951  .00000212  00000-0  13053-3 0  9999
2 22220  71.0004  61.9512 0011217  44.7220  78.5869 14.16446323391670
Epoch (UTC): 19 October 2019 00:05:28
Eccentricity: 0.0011217
inclination: 71.0004°
perigee height: 829 km
apogee height: 845 km
right ascension of ascending node: 61.9512°
argument of perigee: 44.7220°
revolutions per day: 14.16446323
mean anomaly at epoch: 78.5869°
orbit number at epoch: 39167

The dashed part of the orbit path shows where the satellite is in the earth's shadow,  

DLR